CAPE
136 611 851 849 953 912 472 509 467 391 314 293 26 23 0 0 0 0 0 0 0 6 2 2 5 5 7 7 6 6 5 5 6
1237 1339 1097 979 1110 921 382 280 141 79 126 169 0 0 0 0 0 0 0 0 0 3 2 2 3 4 4 5 6 6 5 4 5
1375 1361 1129 897 786 488 209 143 68 21 0 85 215 0 0 0 0 0 0 0 0 1 0 0 1 0 0 1 2 2 1 1 0
1109 1164 1239 997 846 729 490 89 28 5 19 218 408 0 0 0 0 0 0 41 0 0 0 0 0 0 0 0 0 0 0 0 0
840 890 996 1112 894 951 656 274 20 3 5 388 188 0 0 0 0 0 0 100 0 0 0 0 0 0 0 0 0 0 0 0 0
457 355 373 774 859 735 796 502 240 24 0 202 8 0 0 0 0 0 0 21 0 0 0 0 0 0 0 0 0 0 0 0 0
379 279 175 377 696 489 621 722 219 0 0 0 0 0 0 0 0 0 17 157 0 0 0 0 0 0 0 0 0 0 0 0 0
99 66 32 0 112 17 80 345 82 0 0 0 0 0 0 0 0 0 63 228 0 0 0 0 0 0 0 0 0 0 0 0 0
177 125 10 0 0 0 0 0 0 0 0 0 0 0 0 0 0 0 1 184 162 0 0 45 5 1 1 1 2 1 1 1 0
184 187 67 2 0 0 0 0 0 0 0 0 0 0 0 0 0 0 0 8 239 247 54 91 133 79 7 4 5 46 33 6 38
297 178 144 92 35 20 4 0 0 0 0 0 0 0 0 0 0 0 0 1 19 205 109 55 86 163 234 187 219 433 361 144 156
272 195 188 169 77 58 54 50 13 0 0 0 0 0 0 0 0 0 0 0 0 6 152 120 190 372 295 459 476 563 416 512 369
0 198 195 185 196 187 108 54 39 0 0 0 0 0 0 0 0 0 0 0 0 0 19 122 344 457 224 284 412 599 648 530 390
41 73 231 164 123 229 187 116 100 47 2 0 0 0 0 0 0 0 0 0 0 0 0 2 33 105 380 123 212 348 579 623 542
23 37 20 60 141 114 60 111 96 117 69 42 58 2 0 0 0 0 0 0 0 0 0 0 0 1 69 252 199 443 674 478 422
49 46 77 57 37 82 127 71 54 23 33 43 0 0 0 0 0 0 4 0 0 0 0 0 0 0 0 37 163 295 531 620 477
37 60 79 74 54 33 67 137 67 33 33 60 2 6 0 0 0 0 0 0 0 0 0 0 0 0 0 0 6 86 307 359 596
19 33 66 52 25 40 35 34 6 0 0 39 57 30 4 0 0 0 0 0 0 0 0 0 0 0 0 0 2 5 64 302 388
95 122 115 65 38 37 32 23 0 0 0 0 72 66 0 24 11 0 3 0 0 0 0 0 0 0 0 0 12 16 9 115 287
44 4 14 25 30 43 36 29 23 37 45 37 31 31 41 38 64 15 9 0 0 0 0 0 0 0 0 0 0 7 38 190 312
CIN
-115 -1 -2 -2 -1 -0 -15 -9 -17 -35 -53 -63 -9 -21 -0 -0 -0 -0 -0 -0 -0 -0 -0 -0 -0 -0 -0 -0 -0 -0 -0 -0 -0
-0 -1 -1 -2 -1 -0 -15 -39 -71 -108 -97 -75 -0 -0 -0 -0 -0 -0 -0 -0 -0 -0 -0 -0 -0 -0 -0 -0 -0 -0 -0 -0 -0
-0 -0 -1 -1 -1 -1 -27 -48 -90 -124 -0 -93 -54 -0 -0 -0 -0 -0 -0 -0 -0 -0 -0 -0 -0 -0 -0 -0 -0 -0 -0 -0 -0
-1 -1 -0 -1 -0 -0 -0 -77 -107 -163 -85 -27 -11 -0 -0 -0 -0 -0 -0 -200 -0 -0 -0 -0 -0 -0 -0 -0 -0 -0 -0 -0 -0
-7 -3 -3 -1 -1 -0 -0 -12 -101 -72 -100 -0 -27 -0 -0 -0 -0 -0 -0 -80 -0 -0 -0 -0 -0 -0 -0 -0 -0 -0 -0 -0 -0
-23 -25 -22 -5 -2 -2 -0 -1 -14 -42 -0 -3 -45 -0 -0 -0 -0 -0 -0 -29 -0 -0 -0 -0 -0 -0 -0 -0 -0 -0 -0 -0 -0
-44 -48 -52 -32 -8 -8 -2 -1 -18 -0 -0 -0 -0 -0 -0 -0 -0 -0 -35 -38 -0 -0 -0 -0 -0 -0 -0 -0 -0 -0 -0 -0 -0
-99 -147 -145 -0 -94 -132 -55 -4 -70 -0 -0 -0 -0 -0 -0 -0 -0 -0 -55 -33 -0 -0 -0 -0 -0 -0 -0 -0 -0 -0 -0 -0 -0
-90 -136 -163 -0 -0 -0 -0 -0 -0 -0 -0 -0 -0 -0 -0 -0 -0 -0 -53 -65 -27 -0 -0 -2 -0 -0 -0 -0 -0 -0 -0 -0 -0
-110 -114 -137 -73 -0 -0 -0 -0 -0 -0 -0 -0 -0 -0 -0 -0 -0 -0 -0 -64 -47 -25 -16 -12 -67 -9 -0 -0 -0 -0 -0 -0 -0
-69 -119 -109 -77 -113 -154 -153 -0 -0 -0 -0 -0 -0 -0 -0 -0 -0 -0 -0 -170 -100 -38 -19 -11 -43 -29 -7 -15 -16 -0 -2 -56 -47
-90 -87 -88 -68 -91 -68 -66 -71 -58 -0 -0 -0 -0 -0 -0 -0 -0 -0 -0 -0 -0 -66 -46 -51 -20 -1 -0 -0 -0 -0 -0 -0 -0
-0 -85 -92 -80 -58 -49 -52 -58 -60 -0 -52 -0 -0 -0 -0 -0 -0 -0 -0 -0 -0 -0 -106 -49 -15 -6 -18 -1 -0 -0 -0 -0 -2
-166 -162 -72 -92 -103 -59 -55 -49 -34 -44 -12 -0 -0 -0 -0 -0 -0 -0 -0 -0 -0 -0 -0 -117 -114 -53 -11 -18 -11 -0 -0 -1 -2
-192 -195 -219 -167 -97 -112 -125 -62 -51 -30 -43 -40 -19 -44 -12 -0 -0 -0 -0 -0 -0 -0 -0 -0 -0 -47 -71 -23 -16 -3 -2 -7 -6
-168 -178 -164 -158 -144 -121 -85 -85 -79 -91 -77 -30 -0 -0 -0 -0 -0 -0 -108 -0 -0 -0 -0 -0 -0 -0 -1 -113 -74 -65 -14 -9 -9
-156 -182 -170 -151 -141 -132 -107 -59 -74 -87 -92 -16 -22 -1 -0 -0 -0 -0 -0 -0 -40 -0 -0 -0 -0 -0 -0 -0 -142 -120 -48 -39 -17
-131 -166 -174 -148 -167 -133 -138 -121 -50 -0 -0 -69 -11 -6 -1 -0 -0 -0 -0 -0 -0 -0 -0 -0 -0 -0 -0 -0 -100 -233 -169 -66 -29
-52 -125 -157 -152 -144 -142 -145 -130 -0 -0 -3 -0 -27 -7 -0 -3 -1 -8 -59 -0 -0 -0 -0 -0 -0 -0 -0 -0 -130 -157 -229 -151 -44
-102 -182 -186 -158 -131 -115 -126 -121 -112 -70 -38 -22 -6 -0 -0 -1 -0 -2 -3 -0 -0 -0 -0 -0 -0 -0 -0 -0 -12 -167 -150 -86 -43
Wind_Speed
7 6 5 7 9 8 8 10 10 9 6 7 7 2 4 5 4 5 7 5 7 7 7 7 7 7 7 8 8 8 8 8 8
7 7 8 9 9 10 9 8 8 7 6 5 6 2 4 4 5 5 6 6 8 6 6 6 6 6 6 6 6 6 6 7 7
7 9 8 9 10 10 9 9 7 6 4 4 7 5 4 3 3 4 5 9 9 7 6 5 4 4 4 4 5 4 5 5 5
7 8 9 9 10 10 10 9 8 7 6 7 7 6 6 2 2 4 4 10 10 9 7 5 5 4 3 3 2 3 3 3 3
8 8 9 10 10 10 11 10 9 7 5 6 8 7 7 3 4 3 4 11 10 9 8 7 7 6 4 3 3 2 1 1 1
7 7 9 11 11 10 11 11 9 8 6 6 7 6 3 4 4 2 12 13 11 10 9 9 8 8 7 6 5 4 4 3 2
8 9 12 12 13 12 11 11 10 8 4 3 7 3 5 4 4 3 13 13 12 11 11 10 9 9 9 8 8 7 7 6 5
5 4 4 4 9 4 6 5 4 5 4 4 4 5 5 4 3 4 14 14 13 12 12 11 11 10 10 10 10 9 9 9 8
4 4 5 5 5 6 6 4 5 6 6 6 6 7 5 5 3 5 13 15 14 14 14 14 13 12 12 12 12 12 11 10 11
4 4 5 4 4 5 5 6 6 6 7 6 6 6 7 7 4 3 12 12 13 14 16 16 16 16 15 15 15 15 14 13 13
5 5 4 4 5 5 5 5 6 6 6 8 8 8 6 8 8 4 6 15 15 16 17 17 18 18 18 18 17 16 16 16 15
4 4 4 4 4 5 4 4 3 3 6 8 8 8 7 6 6 6 5 8 14 16 18 19 19 18 19 18 17 16 17 16 15
6 4 4 5 4 4 4 4 4 4 5 4 5 5 5 6 8 6 6 6 7 12 17 19 20 19 20 19 18 16 15 15 14
5 4 4 5 4 4 4 4 4 3 4 5 5 5 5 6 8 7 8 7 8 7 13 18 18 18 19 21 20 19 16 14 14
6 4 5 5 4 4 3 4 4 4 4 5 5 5 5 5 6 9 7 8 9 9 10 8 10 17 19 20 20 20 19 18 15
6 4 4 4 5 5 6 4 5 3 3 1 3 5 7 7 7 5 5 6 8 8 8 7 6 7 18 19 22 23 23 19 19
5 5 4 4 2 3 5 5 3 4 4 3 1 4 4 6 9 9 11 14 9 8 8 9 10 9 7 11 18 18 22 24 23
6 6 4 2 2 3 4 4 5 4 3 6 5 3 6 2 4 9 10 11 10 12 11 11 11 11 10 10 13 17 20 22 23
3 5 4 2 2 4 4 4 5 4 8 4 8 12 4 6 8 3 5 10 12 14 11 13 13 14 11 14 13 13 17 19 22
4 6 5 4 3 4 5 5 6 7 9 8 7 8 9 11 11 12 8 4 8 10 10 10 9 11 10 8 11 15 16 20 20
Wind_Direction
186 188 162 157 145 139 125 124 123 129 134 145 116 346 346 353 13 116 122 106 99 96 91 90 89 87 85 85 83 80 77 74 73
191 166 160 148 153 147 144 139 133 130 128 142 142 228 304 350 329 132 126 131 117 105 98 97 97 95 92 86 82 81 80 74 67
171 163 168 161 161 162 161 160 155 149 170 195 166 199 265 335 359 174 143 144 138 129 121 116 113 106 99 95 91 85 84 80 74
198 179 184 183 178 175 170 171 169 174 195 218 177 208 254 290 289 194 162 159 153 151 151 153 151 146 137 122 118 116 104 92 78
216 199 198 192 190 175 174 176 178 185 199 223 181 210 252 262 265 193 180 172 166 168 172 176 176 176 176 180 195 187 160 113 84
217 208 199 202 195 190 183 182 182 185 193 185 199 221 257 258 243 212 177 181 179 181 189 193 196 195 195 201 212 219 221 220 220
207 206 204 200 196 191 194 189 190 191 194 211 213 212 237 255 254 216 193 187 191 194 199 208 214 214 213 215 220 226 228 233 229
207 195 205 200 192 187 194 191 195 196 202 218 211 219 234 238 235 233 198 194 200 204 210 217 222 229 233 231 232 236 237 242 243
197 180 186 184 193 185 188 187 199 210 215 218 217 215 222 233 223 219 211 198 204 208 215 218 226 232 238 242 244 243 243 245 249
180 177 177 190 176 191 194 197 200 210 220 224 219 222 220 234 224 196 209 206 207 212 219 224 225 228 234 240 242 244 242 242 245
179 180 185 197 196 193 193 198 206 211 214 226 227 235 219 220 222 206 196 209 211 212 221 228 232 233 233 235 238 240 240 242 245
191 179 179 202 214 204 202 220 225 247 219 224 222 229 231 233 230 227 200 211 216 214 218 226 229 236 242 244 245 244 243 238 244
196 186 196 196 198 194 195 203 222 222 243 234 228 226 225 236 241 233 224 202 210 221 223 224 231 229 233 241 245 251 245 239 240
197 180 204 203 202 202 192 205 197 214 239 245 237 230 232 234 240 234 234 213 211 208 219 221 225 230 229 234 240 246 249 245 234
183 195 185 199 199 207 198 203 218 210 214 233 255 250 244 242 237 244 242 235 224 218 217 215 228 229 230 231 241 245 242 244 235
182 191 200 193 185 201 206 201 213 254 220 219 265 250 235 237 241 239 238 251 243 231 215 215 213 219 228 230 230 231 240 239 238
174 162 177 188 199 227 206 198 209 221 192 217 257 279 285 243 234 226 233 240 233 228 222 217 210 213 215 235 240 232 236 237 239
226 186 141 197 177 220 221 215 238 241 229 203 216 267 235 273 233 232 233 236 237 236 235 232 229 228 232 224 230 229 235 242 246
222 68 66 347 299 260 244 235 225 207 253 231 226 243 226 264 278 243 240 237 238 239 237 240 236 231 227 228 225 219 232 237 242
75 77 59 26 336 279 253 261 246 234 241 238 237 237 242 240 248 269 252 240 236 234 235 232 229 225 224 221 222 217 225 235 237